Showing default

IRIDIUM 115, 42806

Orbit data source: Space-Track

IRIDIUM 115, 42806 is a payload satellite owned by Iridium (US) in LEO that was launched on Sun, 25 Jun 2017 UTC via an FALCON 9 launch vehicle from the Air Force Western Test Range (AFWTR). Payload-class satellites include a variety of spacecraft equipped with specific instruments for various scientific and technological missions. These include communications satellites like Starlink; space stations such as the ISS; scientific satellites like the Hubble; Earth observation satellites from companies like Planet Labs, Umbra, and HawkEye 360; GPS; miniature CubeSats for education and research; and military/defense satellites.

Loading next visibility...
Identifier
42806, 2017-039D
Orbit
LEO
Country
Flag of USUS
Related business
Manufacturer
OATK SSG Gilbert
Mission
Operational Commercial Communications
Bus & Motor
ELITEBUS, Unknown motor
Mass
860 kg wet, 700 kg dry
Launch date (UTC)
2017-06-25 (8 years ago)
Launch vehicle
FALCON 9
Launch site
Air Force Western Test Range (AFWTR)
Object type
Payload
Rocket body
Debris
Shape & HBR
Trap Box + 2 Pan, 4.8 m
Radar Cross Section
10.154 m², Large (>1 m²)

Expand to show TLE details & history
Last TLE update: 9 hours ago

TLE from 9 hours ago
0 IRIDIUM 115
1 42806U 17039D   25312.71583102  .00000633  00000-0  18224-3 0  9992
2 42806  86.4510  54.2223 0001498  95.6401 264.4970 14.43283190442468
Epoch: 2025-11-08T17:10Z
TLE epoch observation values (Epoch: 2025-11-08T17:10:47.800Z)
Latitude
-0.00008°
Longitude
108.38167°
Altitude
750.838 km
Speed
7.479 km/s
True Right ascension
03h 36m 53s
True Declination
0° 00' 00"
Sunlit
Object was in full shadow at epoch
Visualization orbit readout
Latitude
Unknown
Longitude
Unknown
Altitude
Unknown
Speed
Unknown
Apparent Right ascension
Unknown
Apparent Declination
Unknown
Sunlit
N/A
Visualization observer readout
Local Sidereal Time
22:47:05
Azimuth
Unknown
Elevation
Unknown
Doppler factor
Unknown
Orbital elements
Apogee altitude
745.689 km
Perigee altitude
743.555 km
Semi-major axis
7,122.759 km
Eccentricity
0.00015
Inclination
86.451°
RAAN
54.2223°
Arg. of periapsis
95.6401°
True anomaly
264.47991°
Mean anomaly
264.497°
Eccentric anomaly
264.48846°
Mean motion
3.61053 °/min
Orbital period
99.71 mins
BSTAR
0.00018224
Loading maneuver chart data...
Computing Atmospheric mass density...
Loading historical data...
Loading historical data...
Loading historical data...
Loading historical data...
Loading historical data...
Loading historical data...
Loading historical data...

Documentation

Showing up to 5 results
|